Location: Newark
(43.9494°N, 6.8108°E)
Time: 20:45:34
(UTC+00:00)

A-11 Canister half - Pass Details

Date: 24 October 2019
Orbit: 1514 x 1685 km, 47.2° (Epoch: 20 November)

Event Time Altitude Azimuth Distance (km) Brightness Sun altitude
Rises 21:46:28 0° 182° (S) 4,924 - -52.5°
Reaches altitude 10° 21:50:52 10° 166° (SSE) 3,931 - -53.0°
Maximum altitude 21:57:18 19° 126° (SE) 3,229 - -53.7°
Drops below altitude 10° 22:03:39 10° 86° (E) 3,885 - -54.3°
Sets 22:07:55 0° 70° (ENE) 4,847 - -54.7°
